Location: Dumbr?vi?a
(45.8833°N, 22.7000°E)
Time: 13:49:56
(UTC+00:00)

SL-08 RB Rocket - Pass Details

Date: 03 March 2021
Orbit: 647 x 683 km, 97.8° (Epoch: 11 April)

Event Time Altitude Azimuth Distance (km) Brightness Sun altitude
Rises 17:12:15 0° 152° (SSE) 2,965 6.8 -10.1°
Reaches altitude 10° 17:14:29 10° 147° (SSE) 2,063 5.9 -10.5°
Maximum altitude 17:18:51 51° 72° (ENE) 831 3.8 -11.3°
Drops below altitude 10° 17:23:17 10° 357° (N) 2,100 6.4 -12.0°
Sets 17:25:34 0° 352° (N) 3,024 7.2 -12.4°
